Simultaneous Nadir Overpasses (SNOs) Predictions

Prediction of SNOs between AQUA and METOP-C Satellite Orbit:

Table of predicted SNOs for the next 14.0 days since TLE Epoch: 9/3/2022
Index Date (AQUA) Time (AQUA) Lat,Lon (AQUA) SZA (AQUA ) Date (METOP-C) Time (METOP-C) Lat,Lon (METOP-C) SZA (METOP-C ) Distance(km) Time Diff (sec)
1 09/05/2022 03:22:12 74.02, 124.28 67.15 09/05/2022 03:21:33 74.04, 124.27 67.18 2.66 39
2 09/05/2022 04:11:39 -74.11, -68.27 112.75 09/05/2022 04:12:13 -74.08, -68.30 112.77 2.52 34
3 09/07/2022 22:06:17 -74.05, 23.21 111.80 09/07/2022 22:05:12 -74.03, 23.31 111.81 3.52 65
4 09/07/2022 22:55:44 74.07,-169.20 68.24 09/07/2022 22:55:52 74.06,-169.29 68.24 2.85 8
5 09/07/2022 23:45:16 -74.40, -2.35 111.39 09/07/2022 23:46:26 -74.40, -1.10 111.43 37.34 70
6 09/10/2022 16:50:11 73.40, -76.38 68.58 09/10/2022 16:49:05 73.35, -79.20 68.60 89.95 66
7 09/10/2022 17:39:49 -74.05, 89.83 110.74 09/10/2022 17:39:32 -74.05, 89.77 110.73 1.88 17
8 09/10/2022 18:29:17 74.13,-102.70 69.36 09/10/2022 18:30:11 74.12,-102.72 69.36 0.80 54
9 09/13/2022 12:23:55 74.05, -11.17 70.32 09/13/2022 12:23:11 74.06, -11.14 70.33 1.43 44
10 09/13/2022 13:13:22 -74.12, 156.30 109.59 09/13/2022 13:13:51 -74.12, 156.34 109.60 1.42 29
11 09/16/2022 07:07:58 -74.00,-112.08 108.67 09/16/2022 07:06:51 -74.01,-112.18 108.65 3.13 67
12 09/16/2022 07:57:26 74.09, 55.38 71.44 09/16/2022 07:57:29 74.11, 55.41 71.46 3.21 3



Historial Predications of SNOs between AQUA and METOP-C
